Weather History for KWRI - January, 2014

Change the Weather History Date:

Friday, January 17, 2014

  Actual Average Record
Temperature  
Mean Temperature 34 °F -  
Max Temperature 47 °F 35 °F 54 °F (2012)
Min Temperature 21 °F 20 °F 4 °F (2009)
Degree Days  
Heating Degree Days 31    
Moisture  
Dew Point 26 °F    
Average Humidity 73    
Maximum Humidity 92    
Minimum Humidity 46    
Precipitation  
Precipitation 0.00 in - - ()
Sea Level Pressure  
Sea Level Pressure 29.94 in    
Wind  
Wind Speed 5 mph (SSW)    
Max Wind Speed 13 mph    
Max Gust Speed -    
Visibility 10 miles    
Events      
Averages and records for this station are not official NWS values.
T = Trace of Precipitation, MM = Missing Value Source: NWS Daily Summary

Daily Weather History Graph

Daily Weather History Graph

Search for Another Location

Airport or City:

Trip Planner

Search our weather history database for the weather conditions in past years. The results will help you decide how hot, cold, wet, or windy it might be!

Date:

Astronomy

Jan. 17, 2014 Rise Set
Actual Time 7:17 AM EST 4:59 PM EST
Civil Twilight 6:47 AM EST 5:29 PM EST
Nautical Twilight 6:14 AM EST 6:02 PM EST
Astronomical Twilight 5:42 AM EST 6:35 PM EST
Moon 6:44 PM EST (1/17) 7:44 AM EST (1/17)
Length of Visible Light 10h 41m
Length of Day
9h 42m
Full, 98% of the Moon is Illuminated
Jan 17
Full
Jan 24
Last Quarter
Jan 30
New
Feb 6
First Quarter
Feb 14
Full

Hourly Weather History & Observations

Time (EST) Temp. Windchill Dew Point Humidity Pressure Visibility Wind Dir Wind Speed Gust Speed Precip Events Conditions
12:58 AM 25.0 °F 18.1 °F 21.2 °F 86% 29.95 in 10.0 mi SW 5.8 mph - N/A   Clear
1:58 AM 26.1 °F 21.9 °F 20.7 °F 80% 29.95 in 10.0 mi South 3.5 mph - N/A   Clear
2:58 AM 24.3 °F 18.4 °F 20.5 °F 85% 29.97 in 10.0 mi South 4.6 mph - N/A   Clear
3:58 AM 24.1 °F 19.7 °F 19.2 °F 82% 29.96 in 10.0 mi South 3.5 mph - N/A   Clear
4:58 AM 23.7 °F 19.3 °F 19.2 °F 83% 29.97 in 10.0 mi South 3.5 mph - N/A   Clear
5:58 AM 23.4 °F 18.9 °F 20.3 °F 88% 29.95 in 10.0 mi ESE 3.5 mph - N/A   Clear
6:58 AM 21.7 °F - 19.6 °F 91% 29.96 in 10.0 mi Calm Calm - N/A   Clear
7:58 AM 24.1 °F 16.0 °F 22.1 °F 92% 29.97 in 10.0 mi SSE 6.9 mph - N/A   Clear
8:58 AM 31.3 °F 23.9 °F 28.2 °F 88% 29.99 in 10.0 mi South 8.1 mph - N/A   Clear
9:58 AM 37.2 °F 29.6 °F 31.3 °F 79% 30.00 in 10.0 mi South 11.5 mph - N/A   Clear
10:58 AM 40.6 °F 33.4 °F 29.1 °F 64% 29.97 in 10.0 mi SSW 12.7 mph - N/A   Clear
11:58 AM 43.0 °F 37.2 °F 27.9 °F 55% 29.95 in 10.0 mi SSW 10.4 mph - N/A   Clear
12:58 PM 45.0 °F 41.2 °F 28.0 °F 52% 29.93 in 10.0 mi WSW 6.9 mph - N/A   Clear
1:58 PM 46.2 °F 42.7 °F 26.6 °F 46% 29.91 in 10.0 mi SW 6.9 mph - N/A   Clear
2:58 PM 47.1 °F - 27.5 °F 47% 29.91 in 10.0 mi West 6.9 mph - N/A   Clear
3:58 PM 45.0 °F 43.5 °F 26.8 °F 49% 29.91 in 10.0 mi WSW 3.5 mph - N/A   Clear
4:58 PM 42.8 °F - 26.2 °F 52% 29.91 in 10.0 mi Calm Calm - N/A   Scattered Clouds
5:58 PM 38.3 °F - 27.0 °F 64% 29.93 in 10.0 mi NW 2.3 mph - N/A   Partly Cloudy
6:58 PM 34.7 °F - 27.7 °F 76% 29.93 in 10.0 mi Calm Calm - N/A   Mostly Cloudy
7:58 PM 33.8 °F - 28.0 °F 79% 29.93 in 10.0 mi Calm Calm - N/A   Overcast
8:58 PM 34.0 °F - 28.2 °F 79% 29.94 in 10.0 mi Calm Calm - N/A   Mostly Cloudy
9:58 PM 32.9 °F 29.8 °F 28.9 °F 85% 29.92 in 10.0 mi NE 3.5 mph - N/A   Mostly Cloudy
10:58 PM 34.9 °F 32.0 °F 28.6 °F 78% 29.90 in 10.0 mi ESE 3.5 mph - N/A   Clear
11:58 PM 35.1 °F 30.1 °F 30.2 °F 82% 29.86 in 10.0 mi East 5.8 mph - N/A   Clear